Location: Bourg-d�Oueil
(42.8588°N, 0.4991°E)
Time: 18:25:30
(UTC+00:00)

Cosmos 1536 Rocket - Visible Passes

Search period start: 23 October 2021 00:00
Search period end: 02 November 2021 00:00
Orbit: 604 x 633 km, 82.5° (Epoch: 22 October)

Date Brightness Start Highest point End Pass type
(mag) Time Alt. Az. Time Alt. Az. Time Alt. Az.
23 Oct 3.5 05:49:43 10° SSW 05:54:07 75° W 05:58:31 10° N visible
23 Oct 6.3 17:35:51 10° NW 17:39:20 24° W 17:42:49 10° SW visible
24 Oct 6.5 04:30:56 10° SE 04:33:54 18° E 04:36:51 10° NE visible
24 Oct 6.9 17:54:13 10° NW 17:56:19 13° W 17:58:24 10° WSW visible
25 Oct 5.5 04:47:02 10° SSE 04:50:55 32° E 04:54:49 10° NNE visible
26 Oct 4.1 05:03:44 10° S 05:08:03 60° E 05:12:22 10° NNE visible
27 Oct 3.5 05:20:53 10° SSW 05:25:15 72° W 05:29:38 10° N visible
28 Oct 6.3 04:01:59 10° SE 04:05:00 19° E 04:08:01 10° NE visible
28 Oct 4.0 05:38:28 10° SW 05:42:33 38° WNW 05:46:39 10° N visible
28 Oct 6.8 17:25:27 10° WNW 17:27:25 13° W 17:29:21 10° WSW visible
29 Oct 5.3 04:18:07 10° SSE 04:22:02 33° E 04:25:57 10° NNE visible
29 Oct 4.7 05:56:35 10° WSW 05:59:57 21° WNW 06:03:20 10° NNW visible
30 Oct 4.0 04:34:51 10° S 04:39:09 63° E 04:43:28 10° NNE visible
31 Oct 6.9 03:18:28 10° E 03:19:10 10° E 03:19:51 10° ENE visible
31 Oct 3.4 04:52:02 10° SSW 04:56:23 69° W 05:00:44 10° N visible
01 Nov 6.1 03:33:01 10° SE 03:36:06 19° E 03:39:12 10° NE visible
01 Nov 4.0 05:09:39 10° SW 05:13:41 36° WNW 05:17:43 10° N visible
